This is the latest recevied weather packets stored in our database for station/object N9DMT-13. If no packets are shown the sender has not sent any weather packets the latest 10 day(s).
| Time | Temp. | Humidity | Pressure | Rain* | Wind** | Luminosity | Snow |
|---|---|---|---|---|---|---|---|
| 1778279741 | 23.33° C | 25% | 971.5 hPa | 0 mm | - | - | - |
| 1778279440 | 22.78° C | 25% | 971.6 hPa | 0 mm | - | - | - |
| 1778279139 | 22.78° C | 26% | 971.7 hPa | 0 mm | - | - | - |
| 1778278838 | 22.78° C | 24% | 971.8 hPa | 0 mm | - | - | - |
| 1778278537 | 22.78° C | 24% | 971.7 hPa | 0 mm | - | - | - |
| 1778278237 | 22.78° C | 25% | 971.8 hPa | 0 mm | - | - | - |
| 1778277936 | 22.78° C | 23% | 972.1 hPa | 0 mm | - | - | - |
| 1778277635 | 22.78° C | 27% | 971.9 hPa | 0 mm | - | - | - |
| 1778277334 | 22.78° C | 26% | 972 hPa | 0 mm | - | - | - |
| 1778277033 | 22.78° C | 25% | 972 hPa | 0 mm | - | - | - |
| 1778276732 | 22.22° C | 26% | 972.1 hPa | 0 mm | - | - | - |
| 1778276432 | 22.78° C | 25% | 972 hPa | 0 mm | - | - | - |
| 1778276130 | 22.22° C | 26% | 972.1 hPa | 0 mm | - | - | - |
| 1778275830 | 22.22° C | 28% | 972.3 hPa | 0 mm | - | - | - |
| 1778275529 | 22.78° C | 29% | 972.4 hPa | 0 mm | - | - | - |
| 1778275228 | 22.22° C | 25% | 972.4 hPa | 0 mm | - | - | - |
| 1778274927 | 22.22° C | 24% | 972.5 hPa | 0 mm | - | - | - |
| 1778274626 | 21.67° C | 25% | 972.4 hPa | 0 mm | - | - | - |
| 1778274326 | 22.22° C | 27% | 972.7 hPa | 0 mm | - | - | - |
| 1778274025 | 22.22° C | 27% | 972.6 hPa | 0 mm | - | - | - |
| 1778273724 | 22.78° C | 26% | 972.9 hPa | 0 mm | - | - | - |
| 1778273423 | 22.78° C | 26% | 973 hPa | 0 mm | - | - | - |
| 1778273122 | 22.22° C | 26% | 973 hPa | 0 mm | - | - | - |
| 1778272822 | 22.22° C | 26% | 973.2 hPa | 0 mm | - | - | - |
| 1778272521 | 22.22° C | 25% | 973.2 hPa | 0 mm | - | - | - |
* Rain latest hour (hover to see other rain measurements)
** Current wind speed in m/s (hover to see current wind gust speed)